Regional Weather Roundup
Issued by NWS Goodland, KS

Home | Current Version | Previous Version | Text Only | Print | Product List | Glossary On
Versions: 1 2 3 4 5 6 7 8 9 10 11 12 13 14 15 16 17 18 19 20 21 22 23 24 25 26 27 28 29 30 31 32 33 34 35 36 37 38 39 40 41 42 43 44 45 46 47 48 49 50
000
ASUS43 KGLD 240008
RWRGLD

GOODLAND FORECAST AREA HOURLY WEATHER ROUNDUP
NATIONAL WEATHER SERVICE GOODLAND KS
600 PM MDT SAT JUL 23 2016

...OFFICIAL OBSERVATIONS...

CITY           SKY/WX    TMP DP  RH WIND       PRES   REMARKS
GOODLAND KS    SUNNY     99  40  13 E14       29.91S
HILL CITY KS   SUNNY    100  63  29 N6        29.79F HX 102
IMPERIAL NEB   SUNNY     94  63  35 NE9       29.89S
MCCOOK NEB     SUNNY     93  70  46 E9        29.84F
AKRON CO       CLOUDY    92  51  24 NW6       30.00F
BURLINGTON CO  SUNNY     97  45  16 E8        29.96F
LIMON CO       SUNNY     91  38  15 E9        30.04F
$$

...UNOFFICIAL OBSERVATIONS...

CITY           SKY/WX    TMP DP  RH WIND       PRES   REMARKS
COLBY KS       SUNNY    100  57  23 NE7       29.89S
LENORA KS        N/A    101  32   9 MISG        N/A
NORTON KS      SUNNY     99  52  20 N8        29.81S
YUMA CO          N/A     93  55  27 SE9         N/A
$$




USA.gov is the U.S. government's official web portal to all federal, state and local government web resources and services.